W5LND-10 Weather Reports


time (UTC)temp
F
wind
direction
speed
knots
gust
knots
rain 1hr
in
rain 24hr
in
rain mn
in
humidity
%
barometer
mb
20260507115105 50 130 1.7 4.3 0.00 0.00 0.00 81 1017.4
20260507114605 50 93 1.7 4.3 0.00 0.00 0.00 81 1017.4
20260507114105 50 111 1.7 5.2 0.00 0.00 0.00 80 1017.4
20260507113605 50 132 0.9 3.5 0.00 0.00 0.00 80 1017.4
20260507113105 50 144 1.7 4.3 0.00 0.00 0.00 80 1017.5
20260507112605 50 117 2.6 7.0 0.00 0.00 0.00 80 1017.5
20260507112105 51 122 2.6 7.0 0.00 0.00 0.00 79 1017.5
20260507111605 51 121 1.7 7.0 0.00 0.00 0.00 79 1017.5
20260507111105 51 96 1.7 4.3 0.00 0.00 0.00 79 1017.5
20260507110605 51 137 1.7 7.0 0.00 0.00 0.00 79 1017.4
20260507110105 51 128 0.9 3.5 0.00 0.00 0.00 79 1017.5
20260507105605 51 122 2.6 4.3 0.00 0.00 0.00 78 1017.5
20260507105105 51 121 3.5 7.0 0.00 0.00 0.00 78 1017.6
20260507104605 51 135 2.6 7.8 0.00 0.00 0.00 78 1017.5
20260507104105 52 128 2.6 6.1 0.00 0.00 0.00 78 1017.2
20260507103605 52 91 2.6 7.8 0.00 0.00 0.00 78 1017.4
20260507103105 52 113 2.6 7.8 0.00 0.00 0.00 77 1017.4
20260507102605 52 92 2.6 7.8 0.00 0.00 0.00 77 1017.3
20260507102105 52 132 2.6 7.0 0.00 0.00 0.00 76 1017.4
20260507101605 52 140 1.7 6.1 0.00 0.00 0.00 76 1017.4
20260507101105 52 122 2.6 5.2 0.00 0.00 0.00 76 1017.3
20260507100605 52 130 2.6 6.1 0.00 0.00 0.00 75 1017.4
20260507100105 52 127 1.7 6.1 0.00 0.00 0.00 75 1017.3
20260507095605 52 127 1.7 4.3 0.00 0.00 0.00 75 1017.3
20260507095105 53 112 1.7 6.1 0.00 0.00 0.00 74 1017.3
20260507094605 53 123 1.7 6.1 0.00 0.00 0.00 74 1017.3
20260507094105 53 86 1.7 4.3 0.00 0.00 0.00 74 1017.3
20260507093605 53 131 0.9 3.5 0.00 0.00 0.00 74 1017.1
20260507093105 53 131 1.7 3.5 0.00 0.00 0.00 74 1017.2
20260507092605 53 129 2.6 6.1 0.00 0.00 0.00 74 1017.0
20260507092105 53 127 2.6 7.8 0.00 0.00 0.00 74 1016.7
20260507091605 53 136 3.5 7.8 0.00 0.00 0.00 73 1016.7
20260507091105 54 119 3.5 10.4 0.00 0.00 0.00 73 1016.6
20260507090605 54 141 2.6 7.8 0.00 0.00 0.00 72 1016.8
20260507090105 54 138 3.5 7.0 0.00 0.00 0.00 72 1016.8
20260507085605 54 128 4.3 8.7 0.00 0.00 0.00 72 1016.5
20260507085105 54 105 4.3 8.7 0.00 0.00 0.00 71 1016.4
20260507084605 54 126 3.5 9.6 0.00 0.00 0.00 71 1016.2
20260507084105 54 128 3.5 9.6 0.00 0.00 0.00 71 1016.1
20260507083605 54 119 5.2 9.6 0.00 0.00 0.00 70 1016.3
20260507083105 54 126 5.2 9.6 0.00 0.00 0.00 70 1016.2
20260507082605 54 132 4.3 9.6 0.00 0.00 0.00 70 1015.9
20260507082105 55 121 2.6 7.8 0.00 0.00 0.00 69 1015.9
20260507081605 55 136 2.6 8.7 0.00 0.00 0.00 69 1016.0
20260507081105 55 126 2.6 10.4 0.00 0.00 0.00 68 1016.1
20260507080605 55 124 2.6 7.0 0.00 0.00 0.00 68 1016.2
20260507080105 55 107 1.7 7.0 0.00 0.00 0.00 68 1016.2
20260507075605 55 130 1.7 6.1 0.00 0.00 0.00 67 1016.0
20260507075105 56 120 1.7 4.3 0.00 0.00 0.00 67 1015.9
20260507074605 56 121 1.7 5.2 0.00 0.00 0.00 66 1015.9
20260507074105 56 121 2.6 8.7 0.00 0.00 0.00 66 1015.9
20260507073605 56 61 3.5 9.6 0.00 0.00 0.00 66 1015.7
20260507073105 56 103 3.5 8.7 0.00 0.00 0.00 66 1015.8
20260507072605 56 115 4.3 9.6 0.00 0.00 0.00 65 1015.7
20260507072105 56 111 6.1 9.6 0.00 0.00 0.00 65 1015.5
20260507071605 56 133 5.2 10.4 0.00 0.00 0.00 65 1015.4
20260507071105 57 128 4.3 8.7 0.00 0.00 0.00 65 1015.5
20260507070605 57 123 5.2 7.8 0.00 0.00 0.00 65 1015.3
20260507070105 57 109 4.3 8.7 0.00 0.00 0.00 65 1015.2
20260507065605 57 134 2.6 8.7 0.00 0.00 0.00 65 1015.2
20260507065105 57 130 2.6 6.1 0.00 0.00 0.00 65 1015.1
20260507064605 57 134 2.6 7.0 0.00 0.00 0.00 64 1015.0
20260507064105 57 110 3.5 7.0 0.00 0.00 0.00 64 1014.9
20260507063605 57 126 3.5 7.0 0.00 0.00 0.00 64 1014.8
20260507063105 57 130 3.5 7.8 0.00 0.00 0.00 63 1014.7
20260507062605 58 124 3.5 8.7 0.00 0.00 0.00 63 1014.8
20260507062105 58 125 3.5 7.0 0.00 0.00 0.00 63 1014.8
20260507061605 58 128 3.5 7.0 0.00 0.00 0.00 62 1014.8
20260507061105 58 121 2.6 7.0 0.00 0.00 0.00 62 1014.7
20260507060605 58 126 1.7 7.8 0.00 0.00 0.00 62 1014.6
20260507060105 58 105 1.7 6.1 0.00 0.00 0.00 61 1014.6
20260507055605 59 131 0.9 4.3 0.00 0.00 0.00 61 1014.5
20260507055105 59 129 0.0 1.7 0.00 0.00 0.00 60 1014.4
20260507054605 59 136 0.9 2.6 0.00 0.00 0.00 60 1014.3
20260507054105 59 138 0.9 1.7 0.00 0.00 0.00 60 1014.1
20260507053605 60 137 1.7 3.5 0.00 0.00 0.00 59 1013.9
20260507053105 60 134 2.6 7.0 0.00 0.00 0.00 59 1013.9
20260507052605 60 134 2.6 6.1 0.00 0.00 0.00 59 1013.9
20260507052105 60 137 2.6 7.0 0.00 0.00 0.00 58 1013.8
20260507051605 60 105 3.5 7.0 0.00 0.00 0.00 58 1013.7
20260507051105 61 123 4.3 8.7 0.00 0.00 0.00 57 1013.7
20260507050605 61 133 6.1 8.7 0.00 0.00 0.00 57 1013.5
20260507050105 61 139 6.1 10.4 0.00 0.00 0.00 57 1013.5
20260507045605 61 126 6.1 10.4 0.00 0.00 0.00 57 1013.4
20260507045105 61 148 7.0 12.2 0.00 0.00 0.00 56 1013.5
20260507044605 61 146 5.2 13.0 0.00 0.00 0.00 56 1013.2
20260507044105 61 138 4.3 8.7 0.00 0.00 0.00 55 1013.2
20260507043605 62 159 6.1 9.6 0.00 0.00 0.00 55 1013.1
20260507043105 62 148 6.1 12.2 0.00 0.00 0.00 55 1013.0
20260507042605 62 128 5.2 12.2 0.00 0.00 0.00 54 1013.0
20260507042106 62 132 6.1 9.6 0.00 0.00 0.00 54 1012.9
20260507041605 62 144 6.1 11.3 0.00 0.00 0.00 54 1012.8
20260507041105 62 124 7.0 11.3 0.00 0.00 0.00 53 1012.9
20260507040605 63 134 7.8 13.0 0.00 0.00 0.00 53 1012.8
20260507040106 63 132 7.8 12.2 0.00 0.00 0.00 53 1012.7
20260507035606 63 114 7.8 13.9 0.00 0.00 0.00 52 1012.7
20260507035106 63 160 7.8 13.9 0.00 0.00 0.00 52 1012.5
20260507034606 63 137 7.8 12.2 0.00 0.00 0.00 52 1012.4
20260507034106 63 155 7.8 15.6 0.00 0.00 0.00 51 1012.3
20260507033606 64 134 8.7 13.0 0.00 0.00 0.00 51 1012.2
20260507033106 64 138 8.7 14.8 0.00 0.00 0.00 51 1012.1
20260507032606 64 135 7.8 11.3 0.00 0.00 0.00 50 1011.9
20260507032106 64 132 7.8 13.0 0.00 0.00 0.00 50 1011.8
20260507031606 64 134 7.8 12.2 0.00 0.00 0.00 50 1011.7
20260507031106 65 146 7.8 13.9 0.00 0.00 0.00 49 1011.5
20260507030606 65 117 7.8 13.0 0.00 0.00 0.00 48 1011.4
20260507030106 65 119 8.7 13.0 0.00 0.00 0.00 48 1011.3
20260507025606 65 125 8.7 13.9 0.00 0.00 0.00 48 1011.4
20260507025106 66 143 7.8 13.9 0.00 0.00 0.00 47 1011.3
20260507024606 66 114 7.0 12.2 0.00 0.00 0.00 47 1011.1
20260507024106 66 123 7.0 13.0 0.00 0.00 0.00 46 1011.1
20260507023606 66 132 7.0 10.4 0.00 0.00 0.00 46 1011.0
20260507023106 66 148 7.0 10.4 0.00 0.00 0.00 46 1011.0
20260507022606 67 119 7.0 10.4 0.00 0.00 0.00 46 1011.0
20260507022106 67 120 6.1 10.4 0.00 0.00 0.00 45 1010.9
20260507021606 67 155 6.1 9.6 0.00 0.00 0.00 45 1010.8
20260507021106 67 136 6.1 9.6 0.00 0.00 0.00 45 1010.8
20260507020606 68 137 6.1 11.3 0.00 0.00 0.00 45 1010.5
20260507020106 68 139 6.1 10.4 0.00 0.00 0.00 44 1010.6
20260507015606 68 139 6.1 9.6 0.00 0.00 0.00 44 1010.5
20260507015106 69 130 6.1 10.4 0.00 0.00 0.00 44 1010.3
20260507014606 69 109 6.1 11.3 0.00 0.00 0.00 43 1010.3
20260507014106 69 144 6.1 9.6 0.00 0.00 0.00 43 1010.2
20260507013606 69 133 7.0 10.4 0.00 0.00 0.00 43 1010.2
20260507013106 70 139 7.8 13.9 0.00 0.00 0.00 42 1010.1
20260507012606 70 144 7.8 12.2 0.00 0.00 0.00 42 1010.0
20260507012106 70 163 7.8 14.8 0.00 0.00 0.00 42 1009.7
20260507011606 70 137 7.8 13.0 0.00 0.00 0.00 42 1009.7
20260507011106 71 140 7.8 11.3 0.00 0.00 0.00 41 1009.6
20260507010606 71 141 7.0 13.0 0.00 0.00 0.00 41 1009.5
20260507010106 71 171 7.0 13.0 0.00 0.00 0.00 41 1009.3
20260507005606 71 159 7.8 13.9 0.00 0.00 0.00 41 1009.4
20260507005106 72 172 7.0 13.0 0.00 0.00 0.00 41 1009.4
20260507004606 72 200 7.0 14.8 0.00 0.00 0.00 41 1009.3
20260507004106 72 154 7.0 13.9 0.00 0.00 0.00 40 1009.4
20260507003606 73 153 6.1 12.2 0.00 0.00 0.00 41 1009.4
20260507003106 73 150 7.0 13.0 0.00 0.00 0.00 40 1009.4
20260507002606 73 121 7.0 13.0 0.00 0.00 0.00 40 1009.4
20260507002106 73 142 6.1 13.0 0.00 0.00 0.00 40 1009.4
20260507001606 74 189 5.2 14.8 0.00 0.00 0.00 40 1009.4
20260507001106 74 144 6.1 10.4 0.00 0.00 0.00 40 1009.3
20260507000606 74 154 7.0 13.0 0.00 0.00 0.00 40 1009.3
20260507000106 74 144 6.1 12.2 0.00 0.00 0.00 39 1009.3
20260506235606 74 146 6.1 10.4 0.00 0.00 0.00 39 1009.3
20260506235106 75 125 6.1 13.0 0.00 0.00 0.00 39 1009.3
20260506234606 75 142 5.2 11.3 0.00 0.00 0.00 39 1009.4
20260506234106 75 145 4.3 7.8 0.00 0.00 0.00 39 1009.4
20260506233606 75 161 5.2 10.4 0.00 0.00 0.00 39 1009.4
20260506233106 75 132 6.1 10.4 0.00 0.00 0.00 39 1009.3
20260506232606 75 138 5.2 11.3 0.00 0.00 0.00 38 1009.3
20260506232106 75 142 4.3 9.6 0.00 0.00 0.00 39 1009.3
20260506231606 75 137 5.2 10.4 0.00 0.00 0.00 38 1009.5
20260506231106 76 128 4.3 8.7 0.00 0.00 0.00 38 1009.5
20260506230606 76 188 5.2 10.4 0.00 0.00 0.00 39 1009.4
20260506230106 76 159 5.2 13.0 0.00 0.00 0.00 38 1009.4
20260506225606 77 149 4.3 12.2 0.00 0.00 0.00 38 1009.3
20260506225106 76 140 3.5 7.8 0.00 0.00 0.00 37 1009.2
20260506224606 76 169 2.6 7.8 0.00 0.00 0.00 37 1009.2
20260506224106 76 121 4.3 7.8 0.00 0.00 0.00 38 1009.2
20260506223606 76 132 4.3 9.6 0.00 0.00 0.00 37 1009.2
20260506223106 77 123 3.5 11.3 0.00 0.00 0.00 37 1009.2
20260506222606 77 154 3.5 8.7 0.00 0.00 0.00 37 1009.2
20260506222107 77 134 3.5 8.7 0.00 0.00 0.00 37 1009.2
20260506221606 77 157 4.3 7.8 0.00 0.00 0.00 37 1009.2
20260506221106 76 155 3.5 7.0 0.00 0.00 0.00 37 1009.2
20260506220606 76 149 3.5 7.0 0.00 0.00 0.00 37 1009.1
20260506220106 76 157 4.3 9.6 0.00 0.00 0.00 37 1009.1
20260506215606 76 169 4.3 8.7 0.00 0.00 0.00 36 1009.1
20260506215106 77 118 2.6 7.8 0.00 0.00 0.00 36 1009.1
20260506214606 77 139 2.6 7.8 0.00 0.00 0.00 36 1009.2
20260506214106 77 136 3.5 7.8 0.00 0.00 0.00 36 1009.1
20260506213606 77 138 2.6 8.7 0.00 0.00 0.00 36 1009.3
20260506213106 77 145 1.7 7.0 0.00 0.00 0.00 36 1009.3
20260506212606 76 138 0.9 7.8 0.00 0.00 0.00 37 1009.3
20260506212106 76 148 1.7 1.7 0.00 0.00 0.00 37 1009.4
20260506211606 75 141 3.5 7.8 0.00 0.00 0.00 38 1009.4
20260506211106 76 116 2.6 9.6 0.00 0.00 0.00 38 1009.4
20260506210606 76 125 1.7 3.5 0.00 0.00 0.00 39 1009.5
20260506210106 75 153 2.6 7.0 0.00 0.00 0.00 39 1009.6
20260506205606 75 132 2.6 7.0 0.00 0.00 0.00 40 1009.6
20260506205106 74 171 2.6 6.1 0.00 0.00 0.00 40 1009.7
20260506204606 74 134 2.6 6.1 0.00 0.00 0.00 40 1009.8
20260506204106 74 160 1.7 9.6 0.00 0.00 0.00 40 1009.8
20260506203606 74 124 2.6 6.1 0.00 0.00 0.00 40 1009.8
20260506203106 74 161 3.5 7.0 0.00 0.00 0.00 42 1009.8
20260506202606 74 155 3.5 9.6 0.00 0.00 0.00 42 1009.9
20260506202106 73 173 3.5 7.8 0.00 0.00 0.00 42 1009.9
20260506201606 73 128 3.5 7.8 0.00 0.00 0.00 42 1009.8
20260506201106 73 157 4.3 7.0 0.00 0.00 0.00 42 1009.9
20260506200606 73 163 3.5 9.6 0.00 0.00 0.00 42 1009.9
20260506200106 73 118 3.5 6.1 0.00 0.00 0.00 42 1009.8
20260506195606 72 146 4.3 8.7 0.00 0.00 0.00 43 1010.0
20260506195106 72 153 3.5 8.7 0.00 0.00 0.00 43 1010.0
20260506194606 73 142 1.7 4.3 0.00 0.00 0.00 43 1010.1
20260506194106 72 119 1.7 3.5 0.00 0.00 0.00 44 1010.1
20260506193607 72 43 1.7 6.1 0.00 0.00 0.00 44 1010.4
20260506193107 72 149 1.7 7.0 0.00 0.00 0.00 44 1010.5
20260506192606 71 128 1.7 6.1 0.00 0.00 0.00 44 1010.6
20260506192107 71 108 1.7 7.0 0.00 0.00 0.00 45 1010.7
20260506191607 70 146 2.6 4.3 0.00 0.00 0.00 46 1010.6
20260506191107 70 128 3.5 7.8 0.00 0.00 0.00 47 1010.8
20260506190607 69 120 3.5 8.7 0.00 0.00 0.00 47 1010.7
20260506190107 69 134 2.6 8.7 0.00 0.00 0.00 48 1010.9
20260506185607 70 49 2.6 6.1 0.00 0.00 0.00 47 1011.0
20260506185107 69 125 1.7 7.0 0.00 0.00 0.00 48 1011.0
20260506184607 69 124 1.7 3.5 0.00 0.00 0.00 47 1011.2
20260506184107 69 117 1.7 5.2 0.00 0.00 0.00 48 1011.2
20260506183607 68 117 0.9 2.6 0.00 0.00 0.00 49 1011.2
20260506183107 67 119 1.7 3.5 0.00 0.00 0.00 50 1011.2
20260506182607 67 126 2.6 7.8 0.00 0.00 0.00 50 1011.2
20260506182107 66 126 3.5 7.0 0.00 0.00 0.00 51 1011.4
20260506181607 65 61 3.5 7.8 0.00 0.00 0.00 53 1011.4
20260506181107 65 59 2.6 4.3 0.00 0.00 0.00 52 1011.4
20260506180607 66 49 2.6 4.3 0.00 0.00 0.00 52 1011.4
20260506180107 65 125 3.5 8.7 0.00 0.00 0.00 51 1011.4
20260506175607 65 132 3.5 9.6 0.00 0.00 0.00 53 1011.4
20260506175107 65 134 3.5 9.6 0.00 0.00 0.00 53 1011.7
20260506174607 64 146 3.5 9.6 0.00 0.00 0.00 54 1011.8
20260506174107 64 115 3.5 10.4 0.00 0.00 0.00 54 1011.8
20260506173607 64 128 2.6 7.8 0.00 0.00 0.00 55 1011.7
20260506173107 63 148 2.6 7.0 0.00 0.00 0.00 56 1011.6
20260506172607 63 157 3.5 7.0 0.00 0.00 0.00 56 1011.7
20260506172107 62 134 4.3 11.3 0.00 0.00 0.00 56 1011.7
20260506171607 62 84 5.2 9.6 0.00 0.00 0.00 57 1011.7
20260506171107 62 128 5.2 8.7 0.00 0.00 0.00 58 1011.6
20260506170607 61 125 4.3 11.3 0.00 0.00 0.00 58 1011.5
20260506170107 61 130 2.6 7.0 0.00 0.00 0.00 59 1011.4
20260506165607 60 79 2.6 7.8 0.00 0.00 0.00 60 1011.4
20260506165107 60 95 2.6 6.1 0.00 0.00 0.00 62 1011.5
20260506164607 59 91 5.2 6.1 0.00 0.00 0.00 62 1011.8
20260506164107 58 66 6.1 12.2 0.00 0.00 0.00 62 1011.9
20260506163607 59 119 4.3 12.2 0.00 0.00 0.00 62 1012.0
20260506163107 59 130 3.5 11.3 0.00 0.00 0.00 63 1011.7
20260506162607 58 128 3.5 8.7 0.00 0.00 0.00 64 1011.8
20260506162107 58 173 3.5 8.7 0.00 0.00 0.00 64 1011.7
20260506161607 57 184 4.3 9.6 0.00 0.00 0.00 65 1011.6
20260506161107 57 130 4.3 13.9 0.00 0.00 0.00 65 1011.7
20260506160607 57 116 3.5 8.7 0.00 0.00 0.00 67 1011.7
20260506160107 56 121 3.5 10.4 0.00 0.00 0.00 69 1011.8
20260506155607 55 107 4.3 7.8 0.00 0.00 0.00 69 1011.6
20260506155107 54 114 4.3 12.2 0.00 0.00 0.00 71 1011.6
20260506154607 54 115 3.5 10.4 0.00 0.00 0.00 72 1011.6
20260506154107 53 118 3.5 12.2 0.00 0.00 0.00 72 1011.7
20260506153607 53 113 2.6 9.6 0.00 0.00 0.00 73 1011.7
20260506153107 53 121 3.5 9.6 0.00 0.00 0.00 74 1011.7
20260506152607 52 113 3.5 7.8 0.00 0.00 0.00 74 1011.6
20260506152107 52 113 2.6 7.0 0.00 0.00 0.00 74 1011.5
20260506151607 52 62 2.6 7.0 0.00 0.00 0.00 74 1011.6
20260506151107 52 79 2.6 4.3 0.00 0.00 0.00 74 1011.6
20260506150607 52 89 3.5 9.6 0.00 0.00 0.00 75 1011.8
20260506150107 52 107 4.3 8.7 0.00 0.00 0.00 75 1011.6
20260506145607 52 103 4.3 13.0 0.00 0.00 0.00 75 1011.5
20260506145107 52 125 3.5 7.0 0.00 0.00 0.00 75 1011.5
20260506144607 52 78 2.6 9.6 0.00 0.00 0.00 76 1011.4
20260506144107 51 127 2.6 4.3 0.00 0.00 0.00 76 1011.5
20260506143607 51 91 2.6 6.1 0.00 0.00 0.00 76 1011.4
20260506143109 51 93 3.5 6.1 0.00 0.00 0.00 76 1011.2
20260506142607 51 65 4.3 10.4 0.00 0.00 0.00 76 1011.2
20260506142107 51 107 4.3 13.0 0.00 0.00 0.00 76 1011.1
20260506141607 51 108 3.5 13.0 0.00 0.00 0.00 76 1011.1
20260506141107 51 107 3.5 7.0 0.00 0.00 0.00 77 1011.0
20260506140607 51 98 3.5 10.4 0.00 0.00 0.00 76 1010.9
20260506140107 51 82 2.6 8.7 0.00 0.00 0.00 76 1010.9
20260506135607 51 109 3.5 4.3 0.00 0.00 0.00 76 1010.9
20260506135107 51 133 3.5 8.7 0.00 0.00 0.00 76 1010.9
20260506134607 51 109 3.5 10.4 0.00 0.00 0.00 76 1010.9
20260506134107 51 137 3.5 9.6 0.00 0.00 0.00 76 1010.8
20260506133607 51 118 3.5 11.3 0.00 0.00 0.00 75 1010.9
20260506133107 51 117 4.3 7.8 0.00 0.00 0.00 75 1010.8
20260506132610 51 117 4.3 11.3 0.00 0.00 0.00 75 1010.2
20260506132109 51 178 3.5 13.0 0.00 0.00 0.00 75 1010.2
20260506131607 51 86 2.6 6.1 0.00 0.00 0.00 75 1010.2
20260506131107 51 95 2.6 6.1 0.00 0.00 0.00 75 1010.0
20260506130607 51 92 2.6 7.8 0.00 0.00 0.00 74 1010.0
20260506130107 51 110 2.6 9.6 0.00 0.00 0.00 74 1009.8
20260506125607 51 94 3.5 6.1 0.00 0.00 0.00 74 1009.6
20260506125107 51 101 2.6 7.0 0.00 0.00 0.00 74 1009.5
20260506124607 51 71 2.6 6.1 0.00 0.00 0.00 74 1009.6
20260506124107 51 144 2.6 7.0 0.00 0.00 0.00 74 1009.4
20260506123607 51 101 2.6 5.2 0.00 0.00 0.00 74 1009.3
20260506123107 51 128 2.6 8.7 0.00 0.00 0.00 74 1009.1
20260506122607 52 115 2.6 6.1 0.00 0.00 0.00 75 1008.7
20260506122107 52 126 2.6 7.8 0.00 0.00 0.00 75 1008.3
20260506121607 52 132 2.6 4.3 0.00 0.00 0.00 75 1008.2
20260506121107 52 132 1.7 7.0 0.00 0.00 0.00 75 1008.1
20260506120607 52 134 0.9 3.5 0.00 0.00 0.00 75 1008.0
20260506120107 52 95 0.9 5.2 0.00 0.00 0.00 75 1007.9
20260506115607 52 171 1.7 3.5 0.00 0.00 0.00 75 1007.7